Flag for USA

Past Weather in Iron Mountain, Michigan, USA — Yesterday and Last 2 Weeks

Now
61 °F

Clear.


Feels Like: 61 °F
Forecast: 73 / 61 °F
Wind: 3 mph from North

Location: Ford Airport
Current Time: Sep 26, 2020 at 3:43:32 am
Latest Report: Sep 26, 2020 at 2:54 am
Visibility: 10 mi
Pressure29.66 "Hg
Humidity: 83%
Dew Point: 56 °F
Location of Iron MountainLocation

Past Weather in Iron Mountain — Graph

°F

Iron Mountain Temperature Yesterday

Maximum temperature yesterday: 76 °F (at 3:54 pm)
Minimum temperature yesterday: 58 °F (at 12:54 am)
Average temperature yesterday: 65 °F

High & Low Weather Summary for the Past Weeks

 TemperatureHumidityPressure
High82 °F (Sep 23, 2:54 pm)97% (Sep 16, 4:21 am)30.47 "Hg (Sep 16, 4:21 am)
Low30 °F (Sep 18, 3:54 am)30% (Sep 22, 3:54 pm)29.66 "Hg (Sep 25, 7:54 pm)
Average55 °F78%30.10 "Hg
* Reported Sep 11 1:01 am — Sep 26 1:54 am, Iron Mountain. Weather by CustomWeather, © 2020

Note: Actual official high and low records may vary slightly from our data, if they occured in-between our weather recording intervals... More about our weather records

Iron Mountain Weather History for the Previous 24 Hours

Scroll right to see more
 ConditionsComfort  
Time TempWeatherWind HumidityBarometerVisibility
1:54 am
Sat, Sep 26
62 °FClear.5 mph80%29.67 "Hg10 mi
12:54 am63 °FClear.6 mph81%29.68 "Hg10 mi
11:54 pm
Fri, Sep 25
62 °FPassing clouds.6 mph83%29.72 "Hg10 mi
10:54 pm67 °FPassing clouds.8 mph68%29.75 "Hg10 mi
9:54 pm67 °FPassing clouds.6 mph68%29.72 "Hg10 mi
8:54 pm67 °FClear.12 mph68%29.68 "Hg10 mi
7:54 pm68 °FClear.12 mph68%29.66 "Hg10 mi
6:54 pm69 °FClear.12 mph68%29.71 "Hg10 mi
5:54 pm72 °FSunny.10 mph64%29.75 "Hg10 mi
4:54 pm74 °FPassing clouds.9 mph62%29.76 "Hg10 mi
3:54 pm76 °FBroken clouds.12 mph58%29.77 "Hg10 mi
2:54 pm75 °FPartly sunny.12 mph62%29.77 "Hg10 mi
1:54 pm75 °FPartly sunny.13 mph64%29.79 "Hg10 mi
1:23 pm73 °FPartly sunny.13 mph69%29.81 "Hg10 mi
1:11 pm73 °FScattered clouds.9 mph69%29.82 "Hg10 mi
12:54 pm72 °FPartly sunny.10 mph73%29.83 "Hg10 mi
12:14 pm67 °FOvercast.10 mph81%29.85 "Hg10 mi
11:54 am66 °FLow clouds.7 mph81%29.85 "Hg10 mi
10:54 am63 °FLow clouds.7 mph90%29.88 "Hg9 mi
9:54 am63 °FLow clouds.6 mph90%29.88 "Hg9 mi
9:34 am62 °FMostly cloudy.6 mph90%29.88 "Hg9 mi
9:13 am62 °FOvercast.6 mph90%29.88 "Hg9 mi
8:01 am59 °FFog.6 mph96%29.89 "Hg3 mi
6:54 am59 °FFog.No wind93%29.88 "Hg0 mi
5:54 am59 °FFog.No wind93%29.88 "Hg0 mi
4:54 am59 °FFog.5 mph96%29.88 "Hg0 mi
4:43 am58 °FFog.3 mph97%29.88 "Hg0 mi
4:22 am59 °FFog.No wind93%29.88 "Hg1 mi
3:54 am58 °FFog.5 mph97%29.87 "Hg1 mi
3:23 am58 °FFog.3 mph97%29.87 "Hg1 mi
Weather by CustomWeather, © 2020

See weather overview